Flag for U.S.A. Weather past 2 weeks in Metairie, Louisiana, U.S.A.

Now
86 °F

Broken clouds.


Feels Like: 92 °F
Forecast: 78 / 87 °F
Wind: 22 mph from South

Location: New Orleans International Airport

Current Time: May 24, 2015 at 3:00:37 PM

Latest Report: May 24, 2015 at 1:53 PM


Visibility: 10 mi

Pressure: 30.07 "Hg

Humidity: 61%

Dew point: 71 °F

Location of MetairieLocation

Historic Weather in Metairie — Graph

°F

Metairie temperature yesterday

Maximum temperature yesterday: 87 °F (at 2:53 PM)
Minimum temperature yesterday: 72 °F (at 3:53 AM)
Average temperature yesterday: 79 °F

Past Weeks' High & Low Weather Summary

 TemperatureHumidityPressure
High89 °F (May 20, 3:53 PM)91% (May 15, 9:53 PM)30.22 "Hg (May 15, 9:53 PM)
Low68 °F (May 22, 7:53 AM)49% (May 9, 3:53 PM)29.97 "Hg (May 20, 5:53 PM)
Average79 °F75%30.09 "Hg
* Reported May 9 12:53 PM — May 24 12:53 PM, Metairie, Weather by CustomWeather, © 2015

Note: Actual official high and low records may vary slightly from our data, if they occured in-between our weather recording intervals... More about our weather records

Advertising

Metairie weather history for previous 24 hours

 ConditionsComfort  
Time TempWeatherWind HumidityBarometerVisibility
12:53 PM
Sun, May 24
79 °FBroken clouds.8 mph67%30.09 "Hg10 mi
11:53 AM85 °FPartly sunny.18 mph63%30.10 "Hg10 mi
10:53 AM85 °FPartly sunny.18 mph63%30.10 "Hg10 mi
9:53 AM83 °FBroken clouds.16 mph65%30.11 "Hg10 mi
8:53 AM82 °FBroken clouds.13 mph72%30.11 "Hg10 mi
7:53 AM80 °FPassing clouds.9 mph76%30.09 "Hg10 mi
6:53 AM78 °FPassing clouds.8 mph82%30.07 "Hg8 mi
5:53 AM77 °FPassing clouds.7 mph85%30.07 "Hg7 mi
4:53 AM77 °FPassing clouds.9 mph85%30.07 "Hg8 mi
3:53 AM77 °FPassing clouds.9 mph85%30.09 "Hg9 mi
2:53 AM77 °FPassing clouds.7 mph82%30.09 "Hg10 mi
1:53 AM77 °FPassing clouds.8 mph82%30.10 "Hg10 mi
12:53 AM76 °FPassing clouds.6 mph85%30.12 "Hg10 mi
11:53 PM
Sat, May 23
76 °FPassing clouds.6 mph82%30.12 "Hg10 mi
10:53 PM78 °FPassing clouds.8 mph76%30.12 "Hg10 mi
9:53 PM79 °FPassing clouds.13 mph72%30.11 "Hg10 mi
8:53 PM80 °FPassing clouds.12 mph71%30.11 "Hg10 mi
7:53 PM81 °FPartly sunny.9 mph67%30.11 "Hg10 mi
6:53 PM82 °FSunny.13 mph63%30.12 "Hg10 mi
5:53 PM82 °FBroken clouds.15 mph65%30.13 "Hg10 mi
4:53 PM83 °FPartly sunny.12 mph61%30.14 "Hg10 mi
3:53 PM84 °FPartly sunny.15 mph59%30.15 "Hg10 mi
Weather by CustomWeather, © 2015

See weather overviewHow to use our weather pages